Notices

What's New in latest Release from April 7th, 2021:

- Updated Glossary, including Speed of Maximum Gust, and Total Hourly Precipitation

- Updated national and regional climate services offices contacts and prices information

- Addition of station inventory lists for 1981-2010, 1971-2000, and 1961-1990 Normals.

If you haven't already, please take our survey and provide feedback about our website: https://eccc.sondage-survey.ca/f/LanguageSelection.aspx?s=442ca660-fcf1-47c0-95a9-59707d6fd709

Hourly Data Report for August 18, 2018

TORONTO CITY
ONTARIO
Current Station Operator: ECCC - MSC

43°40'00.000" N
79°24'00.000" W
112.50 m
6158355
71508
XTO

Download Data

Hourly Data (August 2018)
Hourly Data Report for August 18, 2018
TIME
LST
Temp Definition
°C
Dew Point Definition
°C
Rel Hum Definition
%
Precip. Amount Definition
mm

Wind Dir Definition
10's deg

Wind Spd Definition
km/h
Visibility Definition
km
Stn Press Definition
kPa
Hmdx Definition


Wind Chill Definition


Weather Definition


00:00 21.7 18.9 84 0.5 LegendMM LegendMM   99.91 28   LegendNANA
01:00 21.8 17.9 79 0.0 LegendMM LegendMM   99.93 28   LegendNANA
02:00 21.8 17.6 77 0.0 LegendMM LegendMM   99.94 28   LegendNANA
03:00 21.2 17.7 81 0.0 LegendMM LegendMM   99.95 27   LegendNANA
04:00 21.2 17.4 79 0.0 LegendMM LegendMM   99.97 27   LegendNANA
05:00 20.7 16.9 79 0.0 LegendMM LegendMM   100.01 26   LegendNANA
06:00 20.2 16.3 79 0.0 LegendMM LegendMM   100.05 25   LegendNANA
07:00 20.4 16.1 77 0.0 LegendMM LegendMM   100.09 25   LegendNANA
08:00 21.3 15.1 68 0.0 LegendMM LegendMM   100.10 25   LegendNANA
09:00 22.1 13.9 60 0.0 LegendMM LegendMM   100.14 25   LegendNANA
10:00 22.9 13.5 55 0.0 LegendMM LegendMM   100.14 26   LegendNANA
11:00 23.9 13.5 52 0.0 LegendMM LegendMM   100.15 27   LegendNANA
12:00 24.4 14.4 53 0.0 LegendMM LegendMM   100.14 28   LegendNANA
13:00 24.2 14.5 55 0.0 LegendMM LegendMM   100.12 28   LegendNANA
14:00 24.1 15.0 57 0.0 LegendMM LegendMM   100.13 28   LegendNANA
15:00 23.7 15.7 61 0.0 LegendMM LegendMM   100.12 28   LegendNANA
16:00 23.7 15.4 60 0.0 LegendMM LegendMM   100.11 28   LegendNANA
17:00 23.3 15.3 61 0.0 LegendMM LegendMM   100.11 27   LegendNANA
18:00 22.8 15.4 63 0.0 LegendMM LegendMM   100.09 27   LegendNANA
19:00 21.9 15.5 67 0.0 LegendMM LegendMM   100.10 26   LegendNANA
20:00 21.5 16.0 71 0.0 LegendMM LegendMM   100.13 26   LegendNANA
21:00 21.5 16.4 73 0.0 LegendMM LegendMM   100.17 26   LegendNANA
22:00 21.6 16.8 74 0.0 LegendMM LegendMM   100.21 27   LegendNANA
23:00 21.8 15.6 68 0.0 LegendMM LegendMM   100.20 26   LegendNANA

Notes on Data Quality.

Legend

  • E = Estimated
  • M = Missing
  • NA = Not Available*
  • [empty] = Indicates an unobserved value
Date modified: